Miscellaneous Local Product
Issued by NWS Hastings, NE

Home | Current Version | Previous Version | Text Only | Print | Product List | Glossary On
Versions: 1 2 3 4 5 6 7 8 9 10 11 12 13 14 15 16 17 18 19 20 21 22 23 24 25 26 27 28 29 30 31 32 33 34 35 36 37 38 39 40 41 42 43 44 45 46 47 48 49 50
000
AXUS43 KGID 181702
MISGRI

GID CWA HOURLY WEATHER ROUNDUP
NATIONAL WEATHER SERVICE HASTINGS NE
1100 AM CST WED JAN 18 2017

NOTE: "FAIR" INDICATES FEW OR NO CLOUDS BELOW 12,000 FEET WITH NO
SIGNIFICANT WEATHER AND/OR OBSTRUCTIONS TO VISIBILITY.

...SOUTH CENTRAL NEBRASKA...

CITY           SKY/WX    TMP DP  RH WIND       PRES   REMARKS
GRAND ISLAND   SUNNY     41  35  79 S12       29.97R
HASTINGS       CLOUDY    40  32  73 S9        30.00R WCI  34
KEARNEY        SUNNY     37  32  81 S15       29.96S WCI  28
ORD            SUNNY     37  29  72 S15       29.90F WCI  28
YORK           SUNNY     39  34  81 S10       30.01R WCI  32
AURORA         SUNNY     39  34  81 S13       29.99R WCI  32
LEXINGTON      SUNNY     37  31  81 CALM      29.94R
HOLDREGE       CLOUDY    36  32  85 SW5       29.96F WCI  32
HEBRON         MOSUNNY   43  37  77 S5        30.03F

...NEBRASKA PANHANDLE...

CITY           SKY/WX    TMP DP  RH WIND       PRES   REMARKS
CHADRON        CLOUDY    29  17  61 S3        29.84R
ALLIANCE       CLOUDY    41  21  44 W10       29.84F
SCOTTSBLUFF    CLOUDY    37  19  48 NW9       29.87F WCI  30
SIDNEY         CLOUDY    39  23  52 W13       29.89S WCI  31

...WESTERN AND NORTH CENTRAL NEBRASKA...

CITY           SKY/WX    TMP DP  RH WIND       PRES   REMARKS
VALENTINE      SUNNY     40  22  48 SW7       29.83F
AINSWORTH      CLOUDY    39  26  59 S7        29.85R WCI  34
ONEILL         CLOUDY    42  32  68 S9        29.88S
BROKEN BOW     SUNNY     36  28  73 S7        29.90F WCI  30
IMPERIAL       CLOUDY    32  24  72 W3        29.91F
NORTH PLATTE   SUNNY     33  26  75 W6        29.92F WCI  28
MCCOOK         MOSUNNY   33  29  85 SW7       29.95R WCI  27

...EASTERN NEBRASKA...

CITY           SKY/WX    TMP DP  RH WIND       PRES   REMARKS
NORFOLK        SUNNY     38  33  82 S16       29.92F WCI  29
SO SIOUX CITY  SUNNY     40  34  79 SE10      29.95R WCI  33
TEKAMAH        SUNNY     38  33  82 S12       29.99F WCI  30
COLUMBUS       SUNNY     41  34  75 S10       29.99S
ALBION         SUNNY     38  32  79 S7        29.93S WCI  33
OMAHA EPPLEY   MOSUNNY   37  32  82 S12       30.03F WCI  29
OFFUTT AFB     SUNNY     37  37 100 SE7       30.03F WCI  31
MILLARD        SUNNY     42  35  76 S6        30.03F
LINCOLN        SUNNY     41  34  76 S10       30.04S
NEBRASKA CITY  SUNNY     38  33  82 S8        30.04F WCI  32
BEATRICE       SUNNY     39  34  83 S7        30.04F WCI  34
FALLS CITY     SUNNY     39  34  82 S10       30.08F WCI  32

...NORTHERN KANSAS...

CITY           SKY/WX    TMP DP  RH WIND       PRES   REMARKS
GOODLAND       CLOUDY    36  28  73 NW6       29.93S WCI  31
HILL CITY      CLOUDY    39  34  82 SW9       29.99R WCI  33
NORTON         SUNNY     36  30  80 S5        29.96R WCI  32
PHILLIPSBURG   SUNNY     43  36  75 SE6       29.99S
SMITH CENTER   SUNNY     41  34  75 S13       30.03R
RUSSELL        MOSUNNY   46  37  71 S21       30.02S
CONCORDIA      CLOUDY    41  34  76 S13       30.04R
SALINA         CLOUDY    39  34  82 SE8       30.08S WCI  33
TOPEKA         SUNNY     44  35  70 S9        30.14S



USA.gov is the U.S. government's official web portal to all federal, state and local government web resources and services.